PulseSat

PulseSat

COSMOS 2474 (742)

Last updated on March 21, 2019, 3:13 a.m. UTC

1 37829U 11055A   19078.53885425  .00000015  00000-0  00000-0 0  9992
2 37829  64.5175 162.5231 0008743 246.0560 216.1602  2.13101871 58065
UTC
Height (km)
Latitude
Longitude
Inclination
Orbital Period

Next 30 passes for location: Hong Kong

Rise time Rise Azimuth (degrees) Set time Set Azimuth (degrees) Duration Max altitude (degrees)

No matching passes for this satellites

PulseSat

PulseSat is the new satellites software and hardware trackering solution by Pulsely.
Satellite Two Line Element Set source: US Air Force Space Command

Download PulseSat for iOS
© 2017 Pulsely Limited